Volver al catálogo

FENGYUN 1C DEB

ActivoSSO
NORAD 31262·DEBRIS·🇨🇳 China

Lanzado May 10, 1999 desde Taiyuan Satellite Launch Center

Loading…

Próximos Pases (próximas 24 horas)

TLE

ActualizadoSource: Space-Track

Época: Sep 14, 2026, 05:16 UTC

1 31262U 99025BMU 26257.21997983  .00002055  00000-0  97726-3 0  9995
2 31262  98.9955 349.8083 0053100  33.1841 356.2750 14.19809010996167

Sigue FENGYUN 1C DEB en tiempo real con AllMySat

Download on the App Store